SV1BYK-2 Weather Reports


Display with metric or nautical units.
time (UTC)temp
F
wind
direction
speed
MPH
gust
MPH
rain 1hr
in
rain 24hr
in
rain mn
in
humidity
%
barometer
mb
20260904192704 82 242 0.0 2.0 0.00 0.00 0.00 40 1009.6
20260904191804 82 222 1.0 2.0 0.00 0.00 0.00 41 1010.0
20260904191115 82 0 0.0 0.0 0.00 0.00 0.00 41 1009.8
20260904190218 82 0 0.0 0.0 0.00 0.00 0.00 41 1009.8
20260904185403 82 240 0.0 2.0 0.00 0.00 0.00 41 1009.9
20260904184503 83 208 0.0 2.0 0.00 0.00 0.00 41 1009.7
20260904183814 83 239 1.0 2.0 0.00 0.00 0.00 41 1009.9
20260904182704 83 225 0.0 2.0 0.00 0.00 0.00 41 1009.6
20260904182014 83 251 1.0 2.0 0.00 0.00 0.00 40 1009.4
20260904180904 84 252 2.0 4.0 0.00 0.00 0.00 40 1009.4
20260904180213 84 224 1.0 4.0 0.00 0.00 0.00 39 1009.1
20260904175403 85 305 2.0 6.0 0.00 0.00 0.00 38 1009.1
20260904174503 85 308 1.0 11.0 0.00 0.00 0.00 38 1009.1
20260904173603 85 285 3.0 13.0 0.00 0.00 0.00 37 1009.0
20260904172703 85 315 2.0 9.0 0.00 0.00 0.00 36 1009.0
20260904171803 86 299 2.0 15.0 0.00 0.00 0.00 35 1008.5
20260904170904 86 310 3.0 15.0 0.00 0.00 0.00 35 1008.4
20260904170214 86 324 4.0 15.0 0.00 0.00 0.00 35 1008.5
20260904165616 86 310 8.0 13.0 0.00 0.00 0.00 35 1008.5
20260904164713 87 329 3.0 11.0 0.00 0.00 0.00 34 1008.4
20260904163816 87 318 3.0 24.0 0.00 0.00 0.00 35 1008.2
20260904162918 87 329 8.0 24.0 0.00 0.00 0.00 34 1008.3
20260904161803 88 326 5.0 25.0 0.00 0.00 0.00 36 1008.1
20260904160903 87 290 11.0 25.0 0.00 0.00 0.00 37 1008.1
20260904160215 87 313 13.0 24.0 0.00 0.00 0.00 36 1007.7
20260904155403 88 281 13.0 22.0 0.00 0.00 0.00 36 1007.8
20260904154713 89 317 11.0 16.0 0.00 0.00 0.00 34 1007.8
20260904153604 89 314 8.0 18.0 0.00 0.00 0.00 35 1007.8
20260904152704 89 298 10.0 21.0 0.00 0.00 0.00 36 1008.1
20260904151804 89 309 11.0 20.0 0.00 0.00 0.00 35 1007.7
20260904151113 90 255 9.0 18.0 0.00 0.00 0.00 35 1007.9
20260904150215 91 301 2.0 24.0 0.00 0.00 0.00 33 1007.8
20260904145617 90 308 4.0 24.0 0.00 0.00 0.00 34 1007.8
20260904144714 90 284 8.0 22.0 0.00 0.00 0.00 34 1007.7
20260904143603 92 344 2.0 25.0 0.00 0.00 0.00 33 1007.5
20260904142914 91 322 4.0 25.0 0.00 0.00 0.00 33 1007.7
20260904142016 93 282 2.0 9.0 0.00 0.00 0.00 32 1007.9
20260904140904 92 310 4.0 18.0 0.00 0.00 0.00 32 1007.6
20260904140216 91 333 4.0 18.0 0.00 0.00 0.00 33 1007.6
20260904135403 92 318 5.0 15.0 0.00 0.00 0.00 33 1007.4
20260904134715 92 289 4.0 17.0 0.00 0.00 0.00 32 1007.4
20260904133817 92 270 5.0 17.0 0.00 0.00 0.00 33 1007.3
20260904132914 93 236 2.0 14.0 0.00 0.00 0.00 34 1007.3
20260904132017 93 278 4.0 22.0 0.00 0.00 0.00 34 1007.5
20260904130904 92 278 6.0 13.0 0.00 0.00 0.00 33 1007.6
20260904130216 94 267 2.0 11.0 0.00 0.00 0.00 33 1007.5
20260904125404 94 314 2.0 17.0 0.00 0.00 0.00 32 1007.6
20260904124715 93 258 3.0 17.0 0.00 0.00 0.00 33 1007.5
20260904123813 93 248 4.0 11.0 0.00 0.00 0.00 34 1007.5
20260904122704 92 260 4.0 18.0 0.00 0.00 0.00 33 1007.7
20260904121803 93 277 3.0 8.0 0.00 0.00 0.00 34 1007.7
20260904120903 92 251 3.0 11.0 0.00 0.00 0.00 33 1007.7
20260904120217 92 256 4.0 18.0 0.00 0.00 0.00 33 1008.0
20260904115403 90 297 6.0 22.0 0.00 0.00 0.00 35 1007.7
20260904114716 92 281 4.0 7.0 0.00 0.00 0.00 32 1008.0
20260904113604 92 229 3.0 9.0 0.00 0.00 0.00 34 1008.1
20260904112916 92 263 3.0 7.0 0.00 0.00 0.00 33 1008.1
20260904112013 92 276 3.0 7.0 0.00 0.00 0.00 34 1008.2
20260904111115 92 261 3.0 8.0 0.00 0.00 0.00 33 1008.3
20260904110005 91 257 2.0 6.0 0.00 0.00 0.00 35 1008.3
20260904105403 92 262 2.0 7.0 0.00 0.00 0.00 34 1008.4
20260904104717 91 297 3.0 15.0 0.00 0.00 0.00 36 1008.3
20260904103603 91 307 4.0 16.0 0.00 0.00 0.00 36 1008.2
20260904102704 89 285 8.0 23.0 0.00 0.00 0.00 40 1008.3
20260904102014 91 270 3.0 13.0 0.00 0.00 0.00 39 1008.1
20260904100904 91 293 3.0 14.0 0.00 0.00 0.00 37 1008.3
20260904100213 90 280 4.0 16.0 0.00 0.00 0.00 39 1008.3
20260904095615 90 255 3.0 15.0 0.00 0.00 0.00 38 1008.4
20260904094717 89 282 3.0 23.0 0.00 0.00 0.00 41 1008.4
20260904093815 89 311 5.0 25.0 0.00 0.00 0.00 41 1008.4
20260904092703 89 344 4.0 25.0 0.00 0.00 0.00 43 1008.5
20260904092014 89 303 8.0 17.0 0.00 0.00 0.00 43 1008.4
20260904090903 90 300 2.0 16.0 0.00 0.00 0.00 41 1008.6
20260904090214 90 310 1.0 18.0 0.00 0.00 0.00 42 1008.4
20260904085403 90 276 2.0 16.0 0.00 0.00 0.00 40 1008.4
20260904084713 89 246 3.0 11.0 0.00 0.00 0.00 41 1008.2
20260904083815 90 316 2.0 15.0 0.00 0.00 0.00 41 1008.4
20260904082703 89 281 2.0 9.0 0.00 0.00 0.00 42 1008.4
20260904082015 89 286 2.0 15.0 0.00 0.00 0.00 42 1008.4
20260904080903 89 299 2.0 20.0 0.00 0.00 0.00 45 1008.5
20260904080003 86 312 8.0 18.0 0.00 0.00 0.00 47 1008.4
20260904075403 88 310 2.0 15.0 0.00 0.00 0.00 45 1008.5
20260904074713 86 331 6.0 23.0 0.00 0.00 0.00 47 1008.4
20260904073604 85 299 8.0 25.0 0.00 0.00 0.00 49 1008.2
20260904072913 85 326 13.0 22.0 0.00 0.00 0.00 50 1008.1
20260904071803 85 318 8.0 17.0 0.00 0.00 0.00 50 1007.9
20260904070903 86 310 4.0 18.0 0.00 0.00 0.00 48 1008.2
20260904070215 85 291 4.0 20.0 0.00 0.00 0.00 48 1008.1
20260904065403 84 310 6.0 20.0 0.00 0.00 0.00 50 1007.9
20260904064714 85 306 4.0 14.0 0.00 0.00 0.00 50 1007.9
20260904063603 87 298 0.0 7.0 0.00 0.00 0.00 45 1007.8
20260904062704 83 302 4.0 8.0 0.00 0.00 0.00 48 1007.8
20260904061804 83 294 4.0 11.0 0.00 0.00 0.00 52 1007.7
20260904061113 83 289 8.0 11.0 0.00 0.00 0.00 52 1007.5
20260904060216 83 282 0.0 11.0 0.00 0.00 0.00 52 1007.7
20260904055617 83 274 2.0 8.0 0.00 0.00 0.00 52 1007.8
20260904054503 82 284 4.0 9.0 0.00 0.00 0.00 55 1007.8
20260904053603 81 293 7.0 9.0 0.00 0.00 0.00 55 1007.6
20260904052914 81 286 5.0 13.0 0.00 0.00 0.00 55 1007.6
20260904051803 81 284 4.0 11.0 0.00 0.00 0.00 56 1007.6
20260904051114 80 285 8.0 11.0 0.00 0.00 0.00 56 1007.7
20260904050004 80 296 5.0 11.0 0.00 0.00 0.00 56 1007.4
20260904045613 80 294 5.0 11.0 0.00 0.00 0.00 57 1007.4
20260904044503 79 298 4.0 13.0 0.00 0.00 0.00 57 1007.5
20260904043603 79 297 8.0 14.0 0.00 0.00 0.00 57 1007.3
20260904042703 79 308 8.0 17.0 0.00 0.00 0.00 57 1007.6
20260904042017 79 311 6.0 15.0 0.00 0.00 0.00 57 1007.6
20260904040903 79 307 8.0 15.0 0.00 0.00 0.00 57 1007.6
20260904040217 79 301 5.0 18.0 0.00 0.00 0.00 57 1007.4
20260904035614 79 306 7.0 20.0 0.00 0.00 0.00 58 1007.4
20260904034716 79 312 12.0 23.0 0.00 0.00 0.00 58 1007.5
20260904033813 79 306 14.0 23.0 0.00 0.00 0.00 57 1007.1
20260904032703 79 329 2.0 11.0 0.00 0.00 0.00 55 1007.5
20260904031803 80 307 4.0 11.0 0.00 0.00 0.00 54 1007.4
20260904030903 80 308 6.0 9.0 0.00 0.00 0.00 54 1007.5
20260904030004 80 311 4.0 13.0 0.00 0.00 0.00 54 1007.3
20260904025614 80 310 6.0 14.0 0.00 0.00 0.00 54 1007.1
20260904024717 79 303 4.0 14.0 0.00 0.00 0.00 54 1007.2
20260904023604 79 310 1.0 13.0 0.00 0.00 0.00 52 1007.1
20260904022916 80 303 8.0 13.0 0.00 0.00 0.00 52 1007.2
20260904021804 79 295 4.0 14.0 0.00 0.00 0.00 53 1007.4
20260904020903 80 295 4.0 11.0 0.00 0.00 0.00 53 1007.1
20260904020213 80 300 4.0 11.0 0.00 0.00 0.00 53 1007.2
20260904015403 80 297 3.0 8.0 0.00 0.00 0.00 52 1007.2
20260904014503 80 299 2.0 4.0 0.00 0.00 0.00 51 1007.1
20260904013815 80 303 0.0 4.0 0.00 0.00 0.00 51 1007.2
20260904012917 80 295 1.0 6.0 0.00 0.00 0.00 51 1007.3
20260904011804 80 300 2.0 8.0 0.00 0.00 0.00 50 1006.9
20260904011117 81 293 2.0 4.0 0.00 0.00 0.00 46 1007.2
20260904010214 80 292 2.0 4.0 0.00 0.00 0.00 45 1007.3
20260904005404 80 292 0.0 2.0 0.00 0.00 0.00 46 1007.2
20260904004713 80 292 0.0 2.0 0.00 0.00 0.00 46 1007.1
20260904003603 80 287 0.0 2.0 0.00 0.00 0.00 45 1007.3
20260904002918 80 294 0.0 2.0 0.00 0.00 0.00 44 1007.0
20260904002015 80 283 2.0 4.0 0.00 0.00 0.00 44 1007.1
20260904001117 80 288 0.0 4.0 0.00 0.00 0.00 45 1007.1
20260904000003 81 298 3.0 7.0 0.00 0.00 0.00 47 1007.2
20260903235404 81 291 2.0 4.0 0.00 0.00 0.00 46 1007.1
20260903234713 81 295 2.0 8.0 0.00 0.00 0.00 45 1007.0
20260903233816 82 300 5.0 8.0 0.00 0.00 0.00 44 1007.4
20260903232703 82 309 0.0 6.0 0.00 0.00 0.00 41 1007.2
20260903231803 82 304 4.0 8.0 0.00 0.00 0.00 41 1007.3
20260903231113 82 307 2.0 6.0 0.00 0.00 0.00 40 1007.3
20260903230215 82 327 0.0 4.0 0.00 0.00 0.00 40 1007.2
20260903225403 82 306 1.0 7.0 0.00 0.00 0.00 39 1007.1
20260903224503 82 301 1.0 6.0 0.00 0.00 0.00 38 1007.2
20260903223816 83 301 2.0 6.0 0.00 0.00 0.00 38 1007.2
20260903222914 83 292 2.0 4.0 0.00 0.00 0.00 38 1007.1
20260903222016 83 292 2.0 4.0 0.00 0.00 0.00 39 1007.1
20260903220904 82 292 0.0 2.0 0.00 0.00 0.00 39 1007.2
20260903220216 83 293 0.0 4.0 0.00 0.00 0.00 38 1007.0
20260903215403 83 302 1.0 4.0 0.00 0.00 0.00 38 1007.1
20260903214503 82 0 0.0 0.0 0.00 0.00 0.00 40 1007.1
20260903213603 82 0 0.0 0.0 0.00 0.00 0.00 40 1007.1
20260903212914 82 81 0.0 2.0 0.00 0.00 0.00 40 1007.1
20260903211803 83 359 1.0 2.0 0.00 0.00 0.00 39 1007.1
20260903210904 82 0 0.0 0.0 0.00 0.00 0.00 40 1007.0
20260903210010 82 0 0.0 0.0 0.00 0.00 0.00 40 1007.2
20260903205613 82 292 0.0 2.0 0.00 0.00 0.00 40 1007.2
20260903204715 83 308 0.0 2.0 0.00 0.00 0.00 39 1007.2
20260903203813 83 315 0.0 4.0 0.00 0.00 0.00 39 1007.0
20260903202703 83 315 1.0 4.0 0.00 0.00 0.00 39 1007.2
20260903201803 83 70 0.0 6.0 0.00 0.00 0.00 39 1007.2
20260903200903 83 302 0.0 4.0 0.00 0.00 0.00 39 1007.2
20260903200004 83 331 0.0 2.0 0.00 0.00 0.00 39 1007.2
20260903195404 83 287 0.0 4.0 0.00 0.00 0.00 40 1007.2
20260903194504 83 259 0.0 2.0 0.00 0.00 0.00 39 1007.0
20260903193604 83 313 1.0 9.0 0.00 0.00 0.00 39 1007.4